When you browse on this site, cookies collect data to enhance your experience and personalize the content and advertising you see.
Visit our Privacy Policy to learn more. By continuing to use the site, you agree to this use of cookies and data.
  • In France
  • List of Countries
  • For 7 days
  • Water Temperature
  • Satellite Maps
  • Weather Map
  • Weather Widgets
  • user-avatar
    Login

    Hourly Weather Kyrdzhali

    Today, 21 March, Thursday

    Time Temperature Precipitation Wind Pressure Humidity
    00:00 +7°C° 0 mm 2 mps 735 mmHg 78%
    01:00 +7°C° 0 mm 2 mps 735 mmHg 78%
    02:00 +6°C° 0 mm 2 mps 735 mmHg 80%
    03:00 +6°C° 0 mm 2 mps 735 mmHg 81%
    04:00 +5°C° 0 mm 2 mps 735 mmHg 83%
    05:00 +5°C° 0 mm 2 mps 735 mmHg 85%
    06:00 +5°C° 0 mm 3 mps 735 mmHg 83%
    07:00 +5°C° 0 mm 3 mps 736 mmHg 81%
    08:00 +6°C° 0 mm 4 mps 736 mmHg 78%
    09:00 +7°C° 0 mm 4 mps 736 mmHg 71%
    10:00 +8°C° 0 mm 5 mps 736 mmHg 65%
    11:00 +9°C° 0 mm 5 mps 737 mmHg 58%
    12:00 +10°C° 0 mm 5 mps 737 mmHg 56%
    13:00 +11°C° 0 mm 6 mps 736 mmHg 55%
    14:00 +13°C° 0 mm 6 mps 736 mmHg 53%
    15:00 +13°C° 0 mm 5 mps 736 mmHg 54%
    16:00 +12°C° 0 mm 5 mps 736 mmHg 54%
    17:00 +12°C° 0 mm 5 mps 735 mmHg 55%
    18:00 +11°C° 0 mm 4 mps 736 mmHg 61%
    19:00 +9°C° 0 mm 3 mps 736 mmHg 66%
    20:00 +8°C° 0 mm 2 mps 736 mmHg 72%
    21:00 +7°C° 0 mm 2 mps 736 mmHg 73%
    22:00 +8°C° 0 mm 1 mps 736 mmHg 75%
    23:00 +7°C° 0 mm 1 mps 736 mmHg 76%

    Tomorrow, 22 March, Friday

    Time Temperature Precipitation Wind Pressure Humidity
    00:00 +7°C° 0 mm 1 mps 736 mmHg 77%
    01:00 +7°C° 0 mm 1 mps 736 mmHg 78%
    02:00 +6°C° 0 mm 1 mps 736 mmHg 79%
    03:00 +6°C° 0 mm 1 mps 736 mmHg 79%
    04:00 +6°C° 0 mm 1 mps 736 mmHg 80%
    05:00 +5°C° 0 mm 1 mps 736 mmHg 80%
    06:00 +5°C° 0 mm 2 mps 736 mmHg 77%
    07:00 +6°C° 0 mm 2 mps 736 mmHg 74%
    08:00 +7°C° 0 mm 2 mps 736 mmHg 71%
    09:00 +8°C° 0 mm 3 mps 736 mmHg 64%
    10:00 +10°C° 0 mm 3 mps 736 mmHg 58%
    11:00 +12°C° 0 mm 4 mps 736 mmHg 51%
    12:00 +12°C° 0 mm 4 mps 736 mmHg 49%
    13:00 +13°C° 0 mm 4 mps 735 mmHg 47%
    14:00 +14°C° 0 mm 4 mps 735 mmHg 46%
    15:00 +14°C° 0 mm 4 mps 734 mmHg 47%
    16:00 +14°C° 0 mm 4 mps 734 mmHg 48%
    17:00 +13°C° 0 mm 4 mps 734 mmHg 50%
    18:00 +12°C° 0 mm 3 mps 734 mmHg 55%
    19:00 +12°C° 0 mm 2 mps 734 mmHg 60%
    20:00 +10°C° 0 mm 1 mps 734 mmHg 65%
    21:00 +10°C° 0 mm 1 mps 733 mmHg 66%
    22:00 +10°C° 0 mm 1 mps 733 mmHg 68%
    23:00 +9°C° 0 mm 1 mps 733 mmHg 69%

    Day after tomorrow, 23 March, Saturday

    Time Temperature Precipitation Wind Pressure Humidity
    00:00 +9°C° 0 mm 1 mps 733 mmHg 70%
    01:00 +9°C° 0 mm 1 mps 733 mmHg 72%
    02:00 +7°C° 0 mm 2 mps 733 mmHg 73%
    03:00 +7°C° 0 mm 2 mps 733 mmHg 75%
    04:00 +7°C° 0 mm 2 mps 733 mmHg 76%
    05:00 +7°C° 0 mm 2 mps 732 mmHg 77%
    06:00 +7°C° 0 mm 2 mps 732 mmHg 73%
    07:00 +8°C° 0 mm 2 mps 733 mmHg 70%
    08:00 +9°C° 0 mm 3 mps 733 mmHg 66%
    09:00 +10°C° 0 mm 3 mps 733 mmHg 63%
    10:00 +12°C° 0 mm 3 mps 733 mmHg 60%
    11:00 +13°C° 0 mm 4 mps 733 mmHg 57%
    12:00 +14°C° 0 mm 4 mps 732 mmHg 55%
    13:00 +14°C° 0 mm 4 mps 732 mmHg 52%
    14:00 +15°C° 0 mm 4 mps 732 mmHg 50%
    15:00 +15°C° 0 mm 4 mps 731 mmHg 51%
    16:00 +14°C° 0 mm 4 mps 731 mmHg 52%
    17:00 +14°C° 0 mm 3 mps 731 mmHg 53%
    18:00 +12°C° 0 mm 3 mps 731 mmHg 61%
    19:00 +12°C° 0 mm 2 mps 731 mmHg 69%
    20:00 +9°C° 0 mm 2 mps 731 mmHg 76%
    21:00 +9°C° 0 mm 2 mps 732 mmHg 76%
    22:00 +10°C° 0 mm 1 mps 732 mmHg 75%
    23:00 +10°C° 0 mm 1 mps 732 mmHg 75%

    24 March, Sunday

    Time Temperature Precipitation Wind Pressure Humidity
    00:00 +10°C° 0 mm 1 mps 732 mmHg 75%
    01:00 +9°C° 0 mm 1 mps 732 mmHg 75%
    02:00 +9°C° 0 mm 1 mps 732 mmHg 76%
    03:00 +8°C° 0 mm 1 mps 732 mmHg 74%
    04:00 +8°C° 0 mm 1 mps 731 mmHg 72%
    05:00 +7°C° 0 mm 1 mps 731 mmHg 71%
    06:00 +8°C° 0 mm 1 mps 731 mmHg 63%
    07:00 +8°C° 0 mm 1 mps 732 mmHg 56%
    08:00 +8°C° 0 mm 2 mps 732 mmHg 49%
    09:00 +9°C° 0 mm 2 mps 732 mmHg 48%
    10:00 +10°C° 0 mm 3 mps 732 mmHg 46%
    11:00 +12°C° 0 mm 4 mps 732 mmHg 44%
    12:00 +12°C° 0 mm 4 mps 732 mmHg 44%
    13:00 +13°C° 0 mm 4 mps 731 mmHg 43%
    14:00 +14°C° 0 mm 5 mps 731 mmHg 42%
    15:00 +14°C° 0 mm 4 mps 731 mmHg 43%
    16:00 +14°C° 0 mm 4 mps 730 mmHg 45%
    17:00 +14°C° 0 mm 3 mps 730 mmHg 46%
    18:00 +12°C° 0 mm 3 mps 730 mmHg 49%
    19:00 +10°C° 0 mm 2 mps 730 mmHg 52%
    20:00 +10°C° 0 mm 1 mps 730 mmHg 55%
    21:00 +9°C° 0 mm 1 mps 730 mmHg 56%
    22:00 +9°C° 0 mm 1 mps 730 mmHg 56%
    23:00 +8°C° 0 mm 1 mps 730 mmHg 57%

    25 March, Monday

    Time Temperature Precipitation Wind Pressure Humidity
    00:00 +8°C° 0 mm 1 mps 730 mmHg 59%
    01:00 +8°C° 0 mm 1 mps 730 mmHg 61%
    02:00 +7°C° 0 mm 1 mps 730 mmHg 63%
    03:00 +7°C° 0 mm 1 mps 729 mmHg 64%
    04:00 +7°C° 0 mm 1 mps 729 mmHg 66%
    05:00 +7°C° 0 mm 1 mps 729 mmHg 67%
    06:00 +8°C° 0 mm 1 mps 729 mmHg 64%
    07:00 +9°C° 0 mm 1 mps 729 mmHg 61%
    08:00 +10°C° 0 mm 1 mps 729 mmHg 58%
    09:00 +12°C° 0 mm 1 mps 729 mmHg 52%
    10:00 +14°C° 0 mm 1 mps 729 mmHg 46%
    11:00 +16°C° 0 mm 1 mps 729 mmHg 41%
    12:00 +16°C° 0 mm 1 mps 728 mmHg 39%
    13:00 +18°C° 0 mm 1 mps 728 mmHg 38%
    14:00 +19°C° 0 mm 1 mps 727 mmHg 36%
    15:00 +19°C° 0 mm 1 mps 727 mmHg 38%
    16:00 +18°C° 0 mm 1 mps 726 mmHg 39%
    17:00 +18°C° 0 mm 1 mps 726 mmHg 40%
    18:00 +15°C° 0 mm 1 mps 726 mmHg 49%
    19:00 +14°C° 0 mm 1 mps 726 mmHg 58%
    20:00 +12°C° 0 mm 2 mps 726 mmHg 67%
    21:00 +11°C° 0 mm 1 mps 726 mmHg 69%
    22:00 +11°C° 0 mm 1 mps 726 mmHg 71%
    23:00 +11°C° 0 mm 1 mps 726 mmHg 73%

    26 March, Tuesday

    Time Temperature Precipitation Wind Pressure Humidity
    00:00 +10°C° 0 mm 1 mps 726 mmHg 72%
    01:00 +9°C° 0 mm 2 mps 726 mmHg 72%
    02:00 +9°C° 0 mm 2 mps 726 mmHg 71%
    03:00 +9°C° 0.3 mm 2 mps 726 mmHg 72%
    04:00 +9°C° 0.3 mm 2 mps 725 mmHg 73%
    05:00 +9°C° 0.3 mm 2 mps 725 mmHg 74%
    06:00 +9°C° 0.6 mm 2 mps 726 mmHg 73%
    07:00 +9°C° 0.6 mm 2 mps 726 mmHg 73%
    08:00 +8°C° 0.6 mm 2 mps 726 mmHg 72%
    09:00 +9°C° 0.2 mm 3 mps 726 mmHg 67%
    10:00 +10°C° 0.2 mm 3 mps 726 mmHg 61%
    11:00 +10°C° 0.2 mm 3 mps 726 mmHg 56%
    12:00 +11°C° 0.1 mm 3 mps 725 mmHg 52%
    13:00 +11°C° 0.1 mm 3 mps 725 mmHg 48%
    14:00 +12°C° 0.1 mm 3 mps 725 mmHg 44%
    15:00 +12°C° 0.2 mm 3 mps 725 mmHg 47%
    16:00 +11°C° 0.2 mm 3 mps 724 mmHg 49%
    17:00 +12°C° 0.2 mm 2 mps 724 mmHg 52%
    18:00 +10°C° 0.1 mm 3 mps 724 mmHg 54%
    19:00 +9°C° 0.1 mm 3 mps 724 mmHg 56%
    20:00 +8°C° 0.1 mm 3 mps 725 mmHg 58%
    21:00 +7°C° 0 mm 2 mps 725 mmHg 58%
    22:00 +6°C° 0 mm 2 mps 724 mmHg 59%
    23:00 +5°C° 0 mm 2 mps 724 mmHg 60%
    Show more